Weather reports worldwide

Advertisment
Pershore, United Kingdom (3529): temperature & dewpoint: 17.10.2020 07:00:00 - 23.10.2020 07:00:00 (BST)Pershore, United Kingdom (3529): temperature -20cm & temperature -100cm: 17.10.2020 07:00:00 - 23.10.2020 07:00:00 (BST)Pershore, United Kingdom (3529): wind speed & gusts: 17.10.2020 07:00:00 - 23.10.2020 07:00:00 (BST)Pershore, United Kingdom (3529): wind direction: 17.10.2020 07:00:00 - 23.10.2020 07:00:00 (BST)Pershore, United Kingdom (3529): reduced air pressure: 17.10.2020 07:00:00 - 23.10.2020 07:00:00 (BST)Pershore, United Kingdom (3529): visibility: 17.10.2020 07:00:00 - 23.10.2020 07:00:00 (BST)Pershore, United Kingdom (3529): precipitation: 17.10.2020 07:00:00 - 23.10.2020 07:00:00 (BST)
Date & Time tt [°C] td [°C] tt -20cm [°C] tt -100cm [°C] ff [km/h] ff [kn] fx [km/h] fx [kn] dd ppp [hPa] vv [km] rr [mm]
23.10.2020 07:00:00 9,6 9,4 - - 4 2 - - SW 1006,3 7 0,0
23.10.2020 06:00:00 9,2 8,8 - - 2 1 - - SSW 1006,6 12 0,0
23.10.2020 05:00:00 9,1 8,6 - - 5 3 - - ENE 1006,6 16 0,0
23.10.2020 04:00:00 9,2 8,6 - - 2 1 - - E 1007,3 18 0,4
23.10.2020 03:00:00 9,7 7,7 - - 8 4 - - SE 1008,1 35 0,0
23.10.2020 02:00:00 9,2 7,4 - - 9 5 - - SE 1008,8 30 0,0
23.10.2020 01:00:00 8,8 7,2 - - 5 3 - - SE 1009,3 35 0,0
23.10.2020 00:00:00 8,3 6,7 - - 5 3 - - SE 1009,6 35 0,0
22.10.2020 23:00:00 8,5 5,7 - - 4 2 - - SSW 1010,0 35 0,0
22.10.2020 22:00:00 8,9 6,2 - - 4 2 - - SW 1010,5 35 0,0
22.10.2020 21:00:00 6,9 4,4 - - 4 2 - - SSW 1010,4 35 0,0
22.10.2020 20:00:00 8,7 5,4 - - 8 4 - - SW 1010,2 45 0,0
22.10.2020 19:00:00 10,2 6,2 - - 4 2 - - SSW 1009,8 35 0,0
22.10.2020 18:00:00 11,4 5,8 - - 2 1 - - SW 1009,3 40 0,0
22.10.2020 17:00:00 12,4 6,0 - - 8 4 - - W 1009,1 45 0,0
22.10.2020 16:00:00 13,0 5,7 - - 11 6 - - WSW 1008,8 45 0,0
22.10.2020 15:00:00 13,2 5,5 - - 11 6 - - WSW 1008,6 50 0,0
22.10.2020 14:00:00 13,6 5,6 - - 15 8 - - W 1008,5 40 0,0
22.10.2020 13:00:00 13,1 6,5 - - 15 8 - - WSW 1008,7 45 0,0
22.10.2020 12:00:00 11,8 5,9 - - 15 8 - - WSW 1008,6 28 0,0
22.10.2020 11:00:00 11,7 6,7 - - 16 9 - - SW 1008,0 45 0,0
22.10.2020 10:00:00 10,8 6,7 12,7 13,2 13 7 - - WSW 1007,7 29 0,0
22.10.2020 09:00:00 10,0 7,1 - - 8 4 - - WSW 1007,0 45 0,0
22.10.2020 08:00:00 10,2 8,4 - - 5 3 - - W 1005,8 35 0,0
22.10.2020 07:00:00 10,7 9,8 - - 8 4 - - W 1004,9 21 0,0
22.10.2020 06:00:00 11,5 11,0 - - 9 5 - - SSW 1004,3 50 0,0
22.10.2020 05:00:00 11,6 11,1 - - 11 6 - - SW 1003,9 35 0,0
22.10.2020 04:00:00 11,3 10,9 - - 9 5 - - SW 1003,5 10 0,0
22.10.2020 03:00:00 11,0 10,4 - - 11 6 - - SW 1003,3 30 0,0
22.10.2020 02:00:00 11,4 10,5 - - 11 6 - - SW 1002,5 45 0,2
22.10.2020 01:00:00 11,6 10,9 - - 5 3 - - SW 1002,1 45 0,0
22.10.2020 00:00:00 11,6 11,0 - - 5 3 - - WSW 1001,3 45 0,6
21.10.2020 23:00:00 13,3 12,6 - - 18 10 - - SSW 1000,4 3,3 0,2
21.10.2020 22:00:00 13,6 13,0 - - 15 8 - - SSW 1000,1 3,1 0,6
21.10.2020 21:00:00 13,5 13,0 - - 13 7 - - SSW 999,9 15 0,0
21.10.2020 20:00:00 13,4 13,0 - - 11 6 - - SSW 999,6 12 0,6
21.10.2020 19:00:00 13,8 13,1 - - 16 9 - - SSW 999,0 12 0,0
21.10.2020 18:00:00 14,2 13,5 - - 16 9 - - SSW 997,9 14 0,0
21.10.2020 17:00:00 14,5 13,5 - - 11 6 - - SSW 997,0 45 0,2
21.10.2020 16:00:00 14,7 13,6 - - 15 8 - - SW 996,1 12 0,2
21.10.2020 15:00:00 14,7 13,9 - - 9 5 - - WSW 995,2 20 0,0
21.10.2020 14:00:00 14,5 13,9 - - 9 5 - - W 994,2 11 0,2
21.10.2020 13:00:00 14,6 14,4 - - 8 4 - - WNW 993,5 2,9 0,6
21.10.2020 12:00:00 14,5 14,4 - - 5 3 - - NW 993,2 3,9 0,8
21.10.2020 11:00:00 13,9 13,7 - - 5 3 - - N 993,0 5 1,0
21.10.2020 10:00:00 13,5 13,3 12,4 13,2 4 2 - - NNW 993,2 2,0 0,6
21.10.2020 09:00:00 13,5 13,2 - - 4 2 - - NE 993,7 4,0 1,0
21.10.2020 08:00:00 13,7 13,4 - - 5 3 - - E 994,2 7 0,6
21.10.2020 07:00:00 13,8 13,3 - - 13 7 - - ESE 994,4 7 0,4
21.10.2020 06:00:00 14,0 13,2 - - 9 5 - - SE 994,9 9 0,2
21.10.2020 05:00:00 13,7 12,7 - - 8 4 - - SE 995,6 14 0,0
21.10.2020 04:00:00 13,5 12,5 - - 8 4 - - SE 996,1 15 0,0
21.10.2020 03:00:00 14,0 12,7 - - 11 6 - - SSE 997,0 19 0,0
21.10.2020 02:00:00 14,1 12,9 - - 13 7 - - SSE 997,5 18 0,0
21.10.2020 01:00:00 13,7 12,7 - - 11 6 - - SSE 997,7 16 0,0
21.10.2020 00:00:00 13,8 12,3 - - 13 7 - - SE 998,0 24 0,0
20.10.2020 23:00:00 14,5 12,5 - - 15 8 - - S 997,9 28 0,0
20.10.2020 22:00:00 14,5 12,4 - - 13 7 - - S 998,2 35 0,0
20.10.2020 21:00:00 14,8 12,6 - - 18 10 - - S 998,3 30 0,0
20.10.2020 20:00:00 15,1 12,3 - - 22 12 - - S 998,3 10 0,0
20.10.2020 19:00:00 14,9 12,3 - - 15 8 - - S 998,1 30 0,0
20.10.2020 18:00:00 14,7 12,6 - - 16 9 - - S 998,0 30 0,2
20.10.2020 17:00:00 15,1 12,0 - - 26 14 - - S 998,3 45 0,0
20.10.2020 16:00:00 17,8 10,9 - - 24 13 54 29 SSW 998,2 26 0,0
20.10.2020 15:00:00 17,6 11,2 - - 28 15 48 26 S 998,1 15 0,0
20.10.2020 14:00:00 17,1 11,3 - - 26 14 - - S 998,4 30 0,0
20.10.2020 13:00:00 16,5 11,5 - - 29 16 48 26 S 998,8 23 0,0
20.10.2020 12:00:00 16,6 11,4 - - 26 14 50 27 SSW 998,8 22 0,0
20.10.2020 11:00:00 16,5 12,5 - - 29 16 48 26 S 998,4 24 0,0
20.10.2020 10:00:00 15,5 12,6 11,9 13,2 21 11 - - S 998,2 30 0,0
20.10.2020 09:00:00 14,6 12,5 - - 21 11 - - S 998,4 35 0,0
20.10.2020 08:00:00 14,3 12,6 - - 21 11 - - S 998,1 40 0,0
20.10.2020 07:00:00 13,6 12,1 - - 16 9 - - SSE 998,2 40 0,0
20.10.2020 06:00:00 13,3 11,8 - - 15 8 - - SSE 998,5 20 0,0
20.10.2020 05:00:00 12,8 11,2 - - 18 10 - - SSE 998,5 26 0,0
20.10.2020 04:00:00 12,0 10,5 - - 15 8 - - SSE 999,1 35 0,2
20.10.2020 03:00:00 11,6 10,1 - - 18 10 - - SE 1000,0 17 0,4
20.10.2020 02:00:00 11,4 9,3 - - 21 11 - - SE 1001,1 20 0,2
20.10.2020 01:00:00 12,2 8,4 - - 18 10 - - SE 1002,2 21 0,0
20.10.2020 00:00:00 11,8 7,8 - - 24 13 - - SE 1003,1 29 0,0
19.10.2020 23:00:00 11,9 7,6 - - 16 9 - - SSE 1004,2 40 0,0
19.10.2020 22:00:00 11,7 7,5 - - 18 10 - - SE 1004,8 35 0,0
19.10.2020 21:00:00 11,4 7,1 - - 16 9 - - SSE 1006,5 30 0,0
19.10.2020 20:00:00 12,0 7,2 - - 15 8 - - SE 1007,2 35 0,0
19.10.2020 19:00:00 12,3 7,1 - - 22 12 - - SSE 1008,2 40 0,0
19.10.2020 18:00:00 12,7 6,6 - - 22 12 - - SSE 1008,8 40 0,0
19.10.2020 17:00:00 13,6 6,5 - - 18 10 - - SSE 1009,2 40 0,0
19.10.2020 16:00:00 14,2 6,1 - - 21 11 - - S 1010,1 40 0,0
19.10.2020 15:00:00 14,4 5,5 - - 24 13 - - SSE 1011,0 40 0,0
19.10.2020 14:00:00 14,7 7,2 - - 24 13 - - S 1012,2 35 0,0
19.10.2020 13:00:00 14,4 8,1 - - 22 12 - - S 1013,4 40 0,0
19.10.2020 12:00:00 12,9 8,1 - - 18 10 - - SSE 1014,5 21 0,0
19.10.2020 11:00:00 10,9 8,2 - - 13 7 - - SE 1015,7 15 0,0
19.10.2020 10:00:00 10,2 7,5 11,9 13,4 21 11 - - SE 1016,0 15 0,0
19.10.2020 09:00:00 8,5 7,1 - - 11 6 - - SE 1016,8 12 0,0
19.10.2020 08:00:00 7,8 6,9 - - 13 7 - - SE 1016,9 10 0,0
19.10.2020 07:00:00 6,8 6,4 - - 9 5 - - ESE 1017,8 6 0,0
19.10.2020 06:00:00 5,8 5,6 - - 8 4 - - SE 1018,4 5 0,0
19.10.2020 05:00:00 5,9 5,7 - - 5 3 - - SSE 1018,9 6 0,0
19.10.2020 04:00:00 4,8 4,6 - - 5 3 - - ESE 1019,6 6 0,0
19.10.2020 03:00:00 4,5 3,8 - - 2 1 - - E 1020,4 5 0,0
19.10.2020 02:00:00 5,6 4,1 - - 0 0 - - N 1021,1 5 0,0
19.10.2020 01:00:00 8,1 6,0 - - 8 4 - - S 1021,1 13 0,0
19.10.2020 00:00:00 9,3 7,4 - - 8 4 - - S 1021,6 13 0,0
18.10.2020 23:00:00 8,2 7,3 - - 8 4 - - SSE 1021,8 7 0,0
18.10.2020 22:00:00 9,0 7,0 - - 5 3 - - S 1022,3 11 0,0
18.10.2020 21:00:00 9,3 6,7 - - 4 2 - - S 1022,9 16 0,0
18.10.2020 20:00:00 9,5 6,7 - - 4 2 - - S 1023,2 17 0,0
18.10.2020 19:00:00 10,0 7,0 - - 5 3 - - S 1023,4 16 0,0
18.10.2020 18:00:00 10,5 8,1 - - 5 3 - - S 1023,0 8 0,0
18.10.2020 17:00:00 10,9 8,1 - - 5 3 - - SSW 1023,0 9 0,0
18.10.2020 16:00:00 11,2 7,9 - - 8 4 - - SW 1023,5 10 0,0
18.10.2020 15:00:00 11,1 8,4 - - 4 2 - - SSW 1023,9 8 0,0
18.10.2020 14:00:00 10,3 8,4 - - 8 4 - - WSW 1024,5 6 0,0
18.10.2020 13:00:00 10,1 8,5 - - 4 2 - - WSW 1024,9 6 0,0
18.10.2020 12:00:00 9,9 8,6 - - 4 2 - - WSW 1025,5 6 0,0
18.10.2020 11:00:00 9,7 8,7 - - 5 3 - - SSW 1025,5 5 0,0
18.10.2020 10:00:00 9,0 8,6 12,0 13,5 2 1 - - NW 1025,4 4,7 0,0
18.10.2020 09:00:00 8,2 8,0 - - 0 0 - - N 1025,3 4,1 0,0
18.10.2020 08:00:00 7,8 7,5 - - 2 1 - - WNW 1024,9 2,5 0,0
18.10.2020 07:00:00 7,7 7,5 - - 2 1 - - WSW 1024,6 2,9 0,0
18.10.2020 06:00:00 7,7 7,4 - - 4 2 - - SW 1024,4 3,1 0,0
18.10.2020 05:00:00 7,8 7,4 - - 4 2 - - WSW 1024,5 3,8 0,0
18.10.2020 04:00:00 7,8 7,3 - - 0 0 - - N 1024,5 5 0,0
18.10.2020 03:00:00 8,0 7,5 - - 2 1 - - W 1024,8 5 0,0
18.10.2020 02:00:00 8,2 7,5 - - 0 0 - - N 1024,7 8 0,0
18.10.2020 01:00:00 8,3 7,4 - - 2 1 - - WNW 1024,9 12 0,0
18.10.2020 00:00:00 8,4 7,5 - - 4 2 - - SW 1024,7 14 0,0
17.10.2020 23:00:00 8,6 7,3 - - 2 1 - - E 1024,6 16 0,0
17.10.2020 22:00:00 8,7 7,2 - - 2 1 - - W 1024,2 23 0,0
17.10.2020 21:00:00 8,8 7,4 - - 2 1 - - WNW 1024,0 23 0,0
17.10.2020 20:00:00 9,1 7,0 - - 2 1 - - W 1024,1 9 0,0
17.10.2020 19:00:00 9,7 6,8 - - 4 2 - - NNW 1023,8 30 0,0
17.10.2020 18:00:00 10,5 6,5 - - 4 2 - - NNW 1023,3 40 0,0
17.10.2020 17:00:00 10,9 5,4 - - 4 2 - - E 1023,0 45 0,0
17.10.2020 16:00:00 10,5 6,0 - - 4 2 - - E 1023,2 40 0,0
17.10.2020 15:00:00 10,4 6,3 - - 4 2 - - N 1023,6 50 0,0
17.10.2020 14:00:00 10,5 5,7 - - 8 4 - - N 1023,5 45 0,0
17.10.2020 13:00:00 10,3 5,9 - - 8 4 - - NNE 1023,7 45 0,0
17.10.2020 12:00:00 10,9 5,6 - - 8 4 - - NE 1023,8 40 0,0
17.10.2020 11:00:00 10,0 6,7 - - 5 3 - - N 1023,9 30 0,0
17.10.2020 10:00:00 9,6 7,2 11,9 13,7 5 3 - - N 1024,0 45 0,0
17.10.2020 09:00:00 8,2 7,7 - - 4 2 - - NNW 1024,0 18 0,0
17.10.2020 08:00:00 7,9 7,4 - - 2 1 - - NNW 1023,8 11 0,0
17.10.2020 07:00:00 8,0 7,4 - - 2 1 - - NNW 1023,8 15 0,0

tt = temperature
td = dewpoint
tt -20cm = temperature -20cm
tt -100cm = temperature -100cm
ff = wind speed
fx = gusts
dd = wind direction
ppp = reduced air pressure
vv = visibility
rr = precipitation

Next stations